Time,TemperatureF,DewpointF,PressureIn,WindDirection,WindDirectionDegrees,WindSpeedMPH,WindSpeedGustMPH,Humidity,HourlyPrecipIn,Conditions,Clouds,dailyrainin,SoftwareType,DateUTC
2013-05-29 00:03:00,51.0,51.0,30.19,NNE,15,0.0,0.0,100,0.00,,,0.00,,2013-05-29 04:03:00,
2013-05-29 00:13:00,51.0,51.0,30.19,NNE,15,0.0,0.0,100,0.00,,,0.00,,2013-05-29 04:13:00,
2013-05-29 00:23:00,51.0,51.0,30.19,NNE,15,0.0,0.0,100,0.00,,,0.00,,2013-05-29 04:23:00,
2013-05-29 00:33:00,50.0,50.0,30.19,NNE,15,0.0,0.0,100,0.00,,,0.00,,2013-05-29 04:33:00,
2013-05-29 00:42:00,50.0,50.0,30.19,NNE,15,0.0,0.0,100,0.00,,,0.00,,2013-05-29 04:42:00,
2013-05-29 00:53:00,50.0,50.0,30.19,NNE,15,0.0,0.0,100,0.00,,,0.00,,2013-05-29 04:53:00,
2013-05-29 01:03:00,50.0,50.0,30.19,NNE,15,0.0,0.0,100,0.00,,,0.00,,2013-05-29 05:03:00,
2013-05-29 01:12:00,50.0,50.0,30.19,NNE,15,0.0,0.0,100,0.00,,,0.00,,2013-05-29 05:12:00,
2013-05-29 01:22:00,50.0,50.0,30.19,NNE,15,0.0,0.0,100,0.00,,,0.00,,2013-05-29 05:22:00,
2013-05-29 01:33:00,51.0,51.0,30.19,NNE,15,0.0,0.0,100,0.00,,,0.00,,2013-05-29 05:33:00,
2013-05-29 01:42:00,51.0,51.0,30.19,NNE,15,0.0,0.0,100,0.00,,,0.00,,2013-05-29 05:42:00,
2013-05-29 01:52:00,51.0,51.0,30.19,NNE,15,0.0,0.0,100,0.00,,,0.00,,2013-05-29 05:52:00,
2013-05-29 02:02:00,51.0,51.0,30.18,NNE,15,0.0,0.0,100,0.00,,,0.00,,2013-05-29 06:02:00,
2013-05-29 02:12:00,51.0,51.0,30.18,NNE,15,0.0,0.0,100,0.00,,,0.00,,2013-05-29 06:12:00,
2013-05-29 02:22:00,51.0,51.0,30.18,NNE,15,0.0,0.0,100,0.00,,,0.00,,2013-05-29 06:22:00,
2013-05-29 02:32:00,52.0,52.0,30.18,NNE,15,0.0,0.0,100,0.00,,,0.00,,2013-05-29 06:32:00,
2013-05-29 02:42:00,52.0,52.0,30.18,NNE,15,0.0,0.0,100,0.00,,,0.00,,2013-05-29 06:42:00,
2013-05-29 02:52:00,52.0,52.0,30.18,NNE,15,0.0,0.0,100,0.00,,,0.00,,2013-05-29 06:52:00,
2013-05-29 03:01:00,53.0,53.0,30.18,NNE,15,0.0,0.0,100,0.00,,,0.00,,2013-05-29 07:01:00,
2013-05-29 03:11:00,53.0,53.0,30.18,NNE,15,0.0,0.0,100,0.00,,,0.00,,2013-05-29 07:11:00,
2013-05-29 03:21:00,53.0,53.0,30.18,NNE,15,0.0,0.0,100,0.00,,,0.00,,2013-05-29 07:21:00,
2013-05-29 03:34:00,53.0,53.0,30.16,NNE,15,0.0,0.0,100,0.00,,,0.00,,2013-05-29 07:34:00,
2013-05-29 03:42:00,53.0,53.0,30.16,NNE,15,0.0,0.0,100,0.00,,,0.00,,2013-05-29 07:42:00,
2013-05-29 03:53:00,54.0,54.0,30.16,NNE,15,0.0,0.0,100,0.00,,,0.00,,2013-05-29 07:53:00,
2013-05-29 04:02:00,54.0,54.0,30.16,NNE,15,0.0,0.0,100,0.00,,,0.00,,2013-05-29 08:02:00,
2013-05-29 04:11:00,54.0,54.0,30.16,NNE,15,0.0,0.0,100,0.00,,,0.00,,2013-05-29 08:11:00,
2013-05-29 04:22:00,54.0,54.0,30.16,NNE,15,0.0,0.0,100,0.00,,,0.00,,2013-05-29 08:22:00,
2013-05-29 04:32:00,54.0,54.0,30.15,NNE,15,0.0,0.0,100,0.00,,,0.00,,2013-05-29 08:32:00,
2013-05-29 04:42:00,54.0,54.0,30.15,NNE,15,0.0,0.0,100,0.00,,,0.00,,2013-05-29 08:42:00,
2013-05-29 04:52:00,55.0,55.0,30.14,NNE,15,0.0,1.0,100,0.00,,,0.00,,2013-05-29 08:52:00,
2013-05-29 05:01:00,55.0,55.0,30.14,NNE,15,0.0,0.0,100,0.00,,,0.00,,2013-05-29 09:01:00,
2013-05-29 05:11:00,55.0,55.0,30.14,NNE,15,0.0,0.0,100,0.00,,,0.00,,2013-05-29 09:11:00,
2013-05-29 05:21:00,55.0,55.0,30.14,NNE,15,0.0,0.0,100,0.00,,,0.00,,2013-05-29 09:21:00,
2013-05-29 05:33:00,57.0,57.0,30.14,ESE,122,0.0,5.0,100,0.00,,,0.00,,2013-05-29 09:33:00,
2013-05-29 05:42:00,57.0,57.0,30.14,ESE,122,0.0,5.0,100,0.00,,,0.00,,2013-05-29 09:42:00,
2013-05-29 05:53:00,57.0,57.0,30.14,ESE,122,0.0,5.0,100,0.00,,,0.00,,2013-05-29 09:53:00,
2013-05-29 06:03:00,57.0,57.0,30.14,SSE,150,5.0,5.0,100,0.00,,,0.00,,2013-05-29 10:03:00,
2013-05-29 06:12:00,57.0,57.0,30.14,SSE,150,5.0,5.0,100,0.00,,,0.00,,2013-05-29 10:12:00,
2013-05-29 06:22:00,56.0,56.0,30.13,SSE,147,3.0,5.0,100,0.00,,,0.00,,2013-05-29 10:22:00,
2013-05-29 06:33:00,56.0,56.0,30.14,SE,146,0.0,2.0,100,0.00,,,0.00,,2013-05-29 10:33:00,
2013-05-29 06:42:00,56.0,56.0,30.14,SE,146,0.0,2.0,100,0.00,,,0.00,,2013-05-29 10:42:00,
2013-05-29 06:52:00,56.0,56.0,30.14,SE,146,0.0,3.0,100,0.00,,,0.00,,2013-05-29 10:52:00,
2013-05-29 07:02:00,56.0,56.0,30.15,SE,146,0.0,0.0,100,0.00,,,0.00,,2013-05-29 11:02:00,
2013-05-29 07:12:00,56.0,56.0,30.15,SE,146,0.0,0.0,100,0.00,,,0.00,,2013-05-29 11:12:00,
2013-05-29 07:22:00,56.0,56.0,30.16,SE,146,0.0,0.0,100,0.00,,,0.00,,2013-05-29 11:22:00,
2013-05-29 07:32:00,57.0,57.0,30.14,SE,146,0.0,0.0,100,0.00,,,0.00,,2013-05-29 11:32:00,
2013-05-29 07:42:00,57.0,57.0,30.14,SE,146,0.0,0.0,100,0.00,,,0.00,,2013-05-29 11:42:00,
2013-05-29 07:52:00,57.0,57.0,30.14,SE,146,0.0,0.0,100,0.00,,,0.00,,2013-05-29 11:52:00,
2013-05-29 08:01:00,57.0,57.0,30.14,SE,146,0.0,0.0,100,0.00,,,0.00,,2013-05-29 12:01:00,
2013-05-29 08:11:00,57.0,57.0,30.14,SE,146,0.0,0.0,100,0.00,,,0.00,,2013-05-29 12:11:00,
2013-05-29 08:22:00,57.0,57.0,30.13,SE,146,0.0,0.0,100,0.00,,,0.00,,2013-05-29 12:22:00,
2013-05-29 08:32:00,58.0,58.0,30.13,SE,146,0.0,1.0,100,0.00,,,0.00,,2013-05-29 12:32:00,
2013-05-29 08:42:00,58.0,58.0,30.13,SE,146,0.0,1.0,100,0.00,,,0.00,,2013-05-29 12:42:00,
2013-05-29 08:52:00,58.0,58.0,30.13,SE,146,0.0,2.0,100,0.00,,,0.00,,2013-05-29 12:52:00,
2013-05-29 09:02:00,58.0,58.0,30.13,SE,146,0.0,2.0,100,0.00,,,0.00,,2013-05-29 13:02:00,
2013-05-29 09:11:00,58.0,58.0,30.13,SE,146,0.0,2.0,100,0.00,,,0.00,,2013-05-29 13:11:00,
2013-05-29 09:22:00,58.0,58.0,30.13,SE,146,0.0,2.0,100,0.00,,,0.00,,2013-05-29 13:22:00,
2013-05-29 09:32:00,58.0,58.0,30.12,SE,146,0.0,1.0,100,0.00,,,0.00,,2013-05-29 13:32:00,
2013-05-29 09:42:00,58.0,58.0,30.12,SE,146,0.0,1.0,100,0.00,,,0.00,,2013-05-29 13:42:00,
2013-05-29 09:53:00,58.0,58.0,30.11,SE,146,0.0,1.0,100,0.00,,,0.00,,2013-05-29 13:53:00,
2013-05-29 10:02:00,58.0,58.0,30.12,SE,146,0.0,0.0,100,0.00,,,0.00,,2013-05-29 14:02:00,
2013-05-29 10:11:00,58.0,58.0,30.12,SE,146,0.0,0.0,100,0.00,,,0.00,,2013-05-29 14:11:00,
2013-05-29 10:21:00,58.0,58.0,30.12,SE,146,0.0,0.0,100,0.00,,,0.00,,2013-05-29 14:21:00,
2013-05-29 10:32:00,59.0,59.0,30.11,SE,146,0.0,0.0,100,0.00,,,0.00,,2013-05-29 14:32:00,
2013-05-29 10:42:00,59.0,59.0,30.11,SE,146,0.0,0.0,100,0.00,,,0.00,,2013-05-29 14:42:00,
2013-05-29 10:52:00,59.0,59.0,30.11,SE,146,0.0,3.0,100,0.00,,,0.00,,2013-05-29 14:52:00,
2013-05-29 11:01:00,59.0,59.0,30.11,SE,146,0.0,1.0,100,0.00,,,0.00,,2013-05-29 15:01:00,
2013-05-29 11:11:00,59.0,59.0,30.11,SE,145,0.0,3.0,100,0.00,,,0.00,,2013-05-29 15:11:00,
2013-05-29 11:21:00,59.0,59.0,30.11,SE,145,0.0,3.0,100,0.00,,,0.00,,2013-05-29 15:21:00,
2013-05-29 11:33:00,59.0,59.0,30.12,SE,145,0.0,0.0,100,0.00,,,0.00,,2013-05-29 15:33:00,
2013-05-29 11:42:00,59.0,59.0,30.12,SE,145,0.0,0.0,100,0.00,,,0.00,,2013-05-29 15:42:00,
2013-05-29 11:53:00,59.0,59.0,30.12,SE,145,0.0,0.0,100,0.00,,,0.00,,2013-05-29 15:53:00,
2013-05-29 12:03:00,60.0,60.0,30.09,SE,145,0.0,0.0,100,0.00,,,0.00,,2013-05-29 16:03:00,
2013-05-29 12:12:00,60.0,60.0,30.09,SE,145,0.0,0.0,100,0.00,,,0.00,,2013-05-29 16:12:00,
2013-05-29 12:22:00,60.0,60.0,30.07,SE,144,0.0,5.0,100,0.00,,,0.00,,2013-05-29 16:22:00,
2013-05-29 12:33:00,60.0,60.0,30.06,SE,145,0.0,3.0,100,0.00,,,0.00,,2013-05-29 16:33:00,
2013-05-29 12:42:00,60.0,60.0,30.06,SE,145,0.0,3.0,100,0.00,,,0.00,,2013-05-29 16:42:00,
2013-05-29 12:52:00,60.0,60.0,30.06,SE,145,0.0,3.0,100,0.00,,,0.00,,2013-05-29 16:52:00,
2013-05-29 13:02:00,60.0,60.0,30.06,SE,145,0.0,3.0,100,0.00,,,0.00,,2013-05-29 17:02:00,
2013-05-29 13:12:00,60.0,60.0,30.06,SE,145,0.0,3.0,100,0.00,,,0.00,,2013-05-29 17:12:00,
2013-05-29 13:32:00,61.0,61.0,30.08,SE,141,0.0,0.0,100,0.00,,,0.00,,2013-05-29 17:32:00,
2013-05-29 13:43:00,61.0,61.0,30.08,SE,141,0.0,0.0,100,0.00,,,0.00,,2013-05-29 17:43:00,
2013-05-29 13:52:00,61.0,61.0,30.08,SE,141,0.0,0.0,100,0.00,,,0.00,,2013-05-29 17:52:00,
2013-05-29 14:01:00,61.0,61.0,30.09,SE,141,0.0,0.0,100,0.00,,,0.00,,2013-05-29 18:01:00,
2013-05-29 14:13:00,61.0,61.0,30.09,SE,141,0.0,0.0,100,0.00,,,0.00,,2013-05-29 18:13:00,
2013-05-29 14:22:00,61.0,61.0,30.09,SE,141,0.0,0.0,100,0.00,,,0.00,,2013-05-29 18:22:00,
2013-05-29 14:32:00,61.0,61.0,30.09,SE,141,0.0,0.0,100,0.00,,,0.00,,2013-05-29 18:32:00,
2013-05-29 14:42:00,61.0,61.0,30.09,SE,141,0.0,0.0,100,0.00,,,0.00,,2013-05-29 18:42:00,
2013-05-29 15:02:00,62.0,62.0,30.06,SE,141,0.0,0.0,100,0.00,,,0.00,,2013-05-29 19:02:00,
2013-05-29 15:12:00,62.0,62.0,30.07,SE,141,1.0,3.0,100,0.00,,,0.00,,2013-05-29 19:12:00,
2013-05-29 15:22:00,62.0,62.0,30.07,SE,141,1.0,3.0,100,0.00,,,0.00,,2013-05-29 19:22:00,
2013-05-29 15:32:00,62.0,62.0,30.06,SSW,198,0.0,2.0,100,0.00,,,0.00,,2013-05-29 19:32:00,
2013-05-29 15:44:00,62.0,62.0,30.06,SSW,198,0.0,2.0,100,0.00,,,0.00,,2013-05-29 19:44:00,
2013-05-29 15:53:00,62.0,62.0,30.06,SSW,198,0.0,2.0,100,0.00,,,0.00,,2013-05-29 19:53:00,
2013-05-29 16:03:00,62.0,62.0,30.05,SSW,196,1.0,3.0,100,0.00,,,0.00,,2013-05-29 20:03:00,
2013-05-29 16:11:00,62.0,62.0,30.05,SSW,196,1.0,3.0,100,0.00,,,0.00,,2013-05-29 20:11:00,
2013-05-29 16:23:00,62.0,62.0,30.05,SSW,196,1.0,3.0,100,0.00,,,0.00,,2013-05-29 20:23:00,
2013-05-29 16:33:00,61.0,61.0,30.06,SSW,196,3.0,3.0,100,0.00,,,0.00,,2013-05-29 20:33:00,
2013-05-29 16:42:00,61.0,61.0,30.06,SSW,196,3.0,3.0,100,0.00,,,0.00,,2013-05-29 20:42:00,
2013-05-29 16:53:00,61.0,61.0,30.05,SSW,197,2.0,3.0,100,0.00,,,0.00,,2013-05-29 20:53:00,
2013-05-29 17:02:00,62.0,62.0,30.06,South,185,0.0,3.0,100,0.00,,,0.00,,2013-05-29 21:02:00,
2013-05-29 17:12:00,62.0,62.0,30.06,South,185,0.0,3.0,100,0.00,,,0.00,,2013-05-29 21:12:00,
2013-05-29 17:22:00,62.0,62.0,30.05,South,185,2.0,3.0,100,0.00,,,0.00,,2013-05-29 21:22:00,
2013-05-29 17:33:00,62.0,62.0,30.06,South,185,0.0,1.0,100,0.00,,,0.00,,2013-05-29 21:33:00,
2013-05-29 17:43:00,62.0,62.0,30.06,South,185,0.0,1.0,100,0.00,,,0.00,,2013-05-29 21:43:00,
2013-05-29 17:53:00,62.0,62.0,30.06,South,185,0.0,1.0,100,0.00,,,0.00,,2013-05-29 21:53:00,
2013-05-29 18:03:00,62.0,62.0,30.04,South,185,0.0,0.0,100,0.00,,,0.00,,2013-05-29 22:03:00,
2013-05-29 18:12:00,62.0,62.0,30.04,South,185,0.0,0.0,100,0.00,,,0.00,,2013-05-29 22:12:00,
2013-05-29 18:23:00,62.0,62.0,30.05,South,185,1.0,3.0,100,0.00,,,0.00,,2013-05-29 22:23:00,
2013-05-29 18:33:00,62.0,62.0,30.04,South,185,0.0,1.0,100,0.00,,,0.00,,2013-05-29 22:33:00,
2013-05-29 18:42:00,62.0,62.0,30.04,South,185,0.0,1.0,100,0.00,,,0.00,,2013-05-29 22:42:00,
2013-05-29 18:53:00,62.0,62.0,30.04,South,185,0.0,1.0,100,0.00,,,0.00,,2013-05-29 22:53:00,
2013-05-29 19:02:00,62.0,62.0,30.03,South,185,0.0,2.0,100,0.00,,,0.00,,2013-05-29 23:02:00,
2013-05-29 19:12:00,62.0,62.0,30.03,South,185,0.0,2.0,100,0.00,,,0.00,,2013-05-29 23:12:00,
2013-05-29 19:22:00,61.0,61.0,30.02,South,185,0.0,2.0,100,0.00,,,0.00,,2013-05-29 23:22:00,
2013-05-29 19:33:00,61.0,61.0,30.02,South,185,0.0,2.0,100,0.00,,,0.00,,2013-05-29 23:33:00,
2013-05-29 19:42:00,60.0,60.0,30.02,South,185,0.0,3.0,100,0.00,,,0.00,,2013-05-29 23:42:00,
2013-05-29 19:53:00,60.0,60.0,30.02,South,185,0.0,3.0,100,0.00,,,0.00,,2013-05-29 23:53:00,
2013-05-29 20:02:00,59.0,59.0,30.02,South,185,0.0,2.0,100,0.00,,,0.00,,2013-05-30 00:02:00,
2013-05-29 20:12:00,59.0,59.0,30.02,South,185,0.0,2.0,100,0.00,,,0.00,,2013-05-30 00:12:00,
2013-05-29 20:22:00,59.0,59.0,30.02,South,185,0.0,2.0,100,0.00,,,0.00,,2013-05-30 00:22:00,
2013-05-29 20:32:00,59.0,59.0,30.02,South,185,0.0,2.0,100,0.00,,,0.00,,2013-05-30 00:32:00,
2013-05-29 20:42:00,59.0,59.0,30.02,South,185,0.0,2.0,100,0.00,,,0.00,,2013-05-30 00:42:00,
2013-05-29 20:52:00,57.0,57.0,30.03,South,185,0.0,3.0,100,0.00,,,0.00,,2013-05-30 00:52:00,
2013-05-29 21:02:00,57.0,57.0,30.03,South,185,0.0,0.0,100,0.00,,,0.00,,2013-05-30 01:02:00,
2013-05-29 21:11:00,57.0,57.0,30.03,South,185,0.0,0.0,100,0.00,,,0.00,,2013-05-30 01:11:00,
2013-05-29 21:22:00,57.0,57.0,30.03,South,185,0.0,0.0,100,0.00,,,0.00,,2013-05-30 01:22:00,
2013-05-29 21:32:00,57.0,57.0,30.03,South,185,0.0,0.0,100,0.00,,,0.00,,2013-05-30 01:32:00,
2013-05-29 21:42:00,57.0,57.0,30.03,South,185,0.0,0.0,100,0.00,,,0.00,,2013-05-30 01:42:00,
2013-05-29 21:52:00,57.0,57.0,30.03,South,185,0.0,0.0,100,0.00,,,0.00,,2013-05-30 01:52:00,
2013-05-29 22:02:00,57.0,57.0,30.02,South,185,0.0,0.0,100,0.00,,,0.00,,2013-05-30 02:02:00,
2013-05-29 22:11:00,57.0,57.0,30.02,South,185,0.0,0.0,100,0.00,,,0.00,,2013-05-30 02:11:00,
2013-05-29 22:22:00,57.0,57.0,30.02,South,185,0.0,0.0,100,0.00,,,0.00,,2013-05-30 02:22:00,
2013-05-29 22:32:00,57.0,57.0,30.02,South,185,0.0,1.0,100,0.00,,,0.00,,2013-05-30 02:32:00,
2013-05-29 22:42:00,57.0,57.0,30.02,South,185,0.0,1.0,100,0.00,,,0.00,,2013-05-30 02:42:00,
2013-05-29 22:52:00,57.0,57.0,30.02,South,185,0.0,1.0,100,0.00,,,0.00,,2013-05-30 02:52:00,
2013-05-29 23:02:00,57.0,57.0,30.02,South,185,0.0,0.0,100,0.00,,,0.00,,2013-05-30 03:02:00,
2013-05-29 23:11:00,57.0,57.0,30.02,South,185,0.0,0.0,100,0.00,,,0.00,,2013-05-30 03:11:00,
2013-05-29 23:21:00,57.0,57.0,30.02,South,185,0.0,0.0,100,0.00,,,0.00,,2013-05-30 03:21:00,
2013-05-29 23:33:00,57.0,57.0,30.02,South,185,0.0,0.0,100,0.00,,,0.00,,2013-05-30 03:33:00,
2013-05-29 23:43:00,57.0,57.0,30.02,South,185,0.0,0.0,100,0.00,,,0.00,,2013-05-30 03:43:00,
2013-05-29 23:53:00,58.0,58.0,30.01,South,188,0.0,3.0,100,0.00,,,0.00,,2013-05-30 03:53:00,